Flag for U.S.A. Weather past 2 weeks in Davis, California, U.S.A.

Now
57 °F

Sunny.


Feels Like: 54 °F
Forecast: 46 / 65 °F
Wind: 12 mph from North

Location: Sacramento International Airport

Current Time: Jan 31, 2015 at 10:31:17 AM

Latest Report: Jan 31, 2015 at 9:53 AM


Visibility: 10 mi

Pressure: 29.98 "Hg

Humidity: 44%

Dew point: 35 °F

Location of DavisLocation

Historic Weather in Davis — Graph

°F

Davis temperature yesterday

Maximum temperature yesterday: 69 °F (at 3:53 PM)
Minimum temperature yesterday: 39 °F (at 7:53 AM)
Average temperature yesterday: 51 °F

Past Weeks' High & Low Weather Summary

 TemperatureHumidityPressure
High69 °F (Jan 30, 3:53 PM)100% (Jan 18, 11:59 AM)30.40 "Hg (Jan 18, 11:59 AM)
Low37 °F (Jan 22, 2:53 AM)48% (Jan 31, 8:53 AM)29.85 "Hg (Jan 30, 3:53 PM)
Average49 °F86%30.18 "Hg
* Reported Jan 16 8:53 AM — Jan 31 8:53 AM, Davis, Weather by CustomWeather, © 2014

Note: Actual official high and low records may vary slightly from our data, if they occured in-between our weather recording intervals... More about our weather records

Advertising

Davis weather history for previous 24 hours

 ConditionsComfort  
Time TempWeatherWind HumidityBarometerVisibility
8:53 AM
Jan 31
53 °FSunny.9 mph48%29.98 "Hg10 mi
7:53 AM48 °FSunny.12 mph54%29.97 "Hg10 mi
6:53 AM49 °FClear.16 mph50%29.95 "Hg10 mi
5:53 AM45 °FClear.14 mph60%29.94 "Hg10 mi
4:53 AM43 °FClear.9 mph68%29.92 "Hg10 mi
3:53 AM46 °FClear.7 mph61%29.92 "Hg10 mi
2:53 AM48 °FClear.5 mph59%29.91 "Hg10 mi
1:53 AM50 °FClear.14 mph59%29.92 "Hg10 mi
12:53 AM49 °FClear.10 mph64%29.92 "Hg10 mi
11:53 PM
Jan 30
49 °FClear.6 mph64%29.92 "Hg10 mi
10:53 PM50 °FClear.10 mph66%29.92 "Hg10 mi
9:53 PM52 °FClear.10 mph61%29.90 "Hg10 mi
8:53 PM53 °FClear.7 mph64%29.89 "Hg10 mi
7:53 PM52 °FClear.7 mph69%29.87 "Hg10 mi
6:53 PM58 °FClear.8 mph60%29.88 "Hg10 mi
5:53 PM60 °FClear.6 mph58%29.87 "Hg10 mi
4:53 PM66 °FSunny.12 mph50%29.85 "Hg10 mi
3:53 PM69 °FSunny.3 mph51%29.85 "Hg10 mi
2:53 PM68 °FSunny.6 mph53%29.87 "Hg10 mi
1:53 PM65 °FSunny.6 mph56%29.90 "Hg10 mi
12:53 PM62 °FSunny.6 mph60%29.93 "Hg10 mi
11:53 AM58 °FSunny.No wind72%29.97 "Hg7 mi
10:53 AM54 °FSunny.3 mph83%30.01 "Hg6 mi
Weather by CustomWeather, © 2014

See weather overviewHow to use our weather pages